Chehalis, WA
on Sunday, November 25, 2012

Sunday
Previous Day Next Day
Daily Summary
 ActualAverage (KOLM)Record (KOLM)
Temperature
Mean Temperature °F 41°F  
Max Temperature 44°F 48°F 59°F (1949)
Min Temperature 37°F 35°F 13°F (1993)
Degree Days
Heating Degree Days 24 24  
Month to date heating degree days 528  
Since 1 July heating degree days 1322  
Cooling Degree Days 0 0  
Month to date cooling degree days 0  
Year to date cooling degree days 106  
Moisture
Dew Point 39°F   
Average Humidity 91    
Maximum Humidity 100    
Minimum Humidity 76    
Precipitation
Precipitation 0.00 in 0.30 in 3.06 in (1998)
Month to date precipitation 7.13  
Year to date precipitation 41.04  
Wind
Wind Speed 4 mph   
Max Wind Speed 14 mph   
Max Gust Speed 18 mph   
Visibility 8 miles   
Events Fog   

Key: T is trace of precipitation, MM is missing value
Source: NWS Daily Summary
Time(PST)TemperatureDew PointHumidity Pressure Visibility Wind DirectionWind SpeedGust SpeedPrecipitationEvents Conditions
12:15 AM 41.0°F 41.0°F 100% 30.29 in 0.5 miles Calm Calm - N/A Fog Fog
12:35 AM 41.0°F 41.0°F 100% 30.29 in 0.5 miles Calm Calm - N/A Fog Fog
1:15 AM 41.0°F 41.0°F 100% 30.29 in 0.5 miles Calm Calm - N/A Fog Fog
1:35 AM 41.0°F 41.0°F 100% 30.29 in 0.5 miles Calm Calm - N/A Fog Fog
1:55 AM 41.0°F 41.0°F 100% 30.29 in 9.0 miles Calm Calm - N/A   Overcast
2:15 AM 41.0°F 41.0°F 100% 30.30 in 10.0 miles NNE 4.6 mph - N/A   Overcast
2:35 AM 41.0°F 41.0°F 100% 30.30 in 9.0 miles Calm Calm - N/A   Overcast
2:55 AM 41.0°F 41.0°F 100% 30.30 in 10.0 miles Calm Calm - N/A   Overcast
3:15 AM 41.0°F 39.2°F 93% 30.30 in 8.0 miles Calm Calm - N/A   Overcast
3:35 AM 41.0°F 39.2°F 93% 30.30 in 10.0 miles Calm Calm - N/A   Overcast
3:55 AM 39.2°F 39.2°F 100% 30.31 in 10.0 miles Calm Calm - N/A   Overcast
4:15 AM 41.0°F 39.2°F 93% 30.31 in 7.0 miles NNW 4.6 mph - N/A   Overcast
4:35 AM 41.0°F 41.0°F 100% 30.31 in 1.8 miles Calm Calm - N/A   Overcast
4:55 AM 41.0°F 41.0°F 100% 30.31 in 2.5 miles Calm Calm - N/A   Overcast
5:15 AM 41.0°F 41.0°F 100% 30.31 in 1.2 miles NNE 4.6 mph - N/A   Overcast
5:35 AM 41.0°F 41.0°F 100% 30.31 in 1.5 miles Calm Calm - N/A   Overcast
5:55 AM 41.0°F 41.0°F 100% 30.31 in 3.0 miles NNE 5.8 mph - N/A   Overcast
6:15 AM 41.0°F 41.0°F 100% 30.31 in 3.0 miles NNW 5.8 mph - N/A   Overcast
6:35 AM 41.0°F 41.0°F 100% 30.31 in 3.0 miles NNW 4.6 mph - N/A   Overcast
6:55 AM 41.0°F 41.0°F 100% 30.31 in 2.5 miles Calm Calm - N/A   Overcast
7:15 AM 41.0°F 41.0°F 100% 30.32 in 7.0 miles North 3.5 mph - N/A   Overcast
7:35 AM 41.0°F 39.2°F 93% 30.32 in 5.0 miles North 3.5 mph - N/A   Overcast
7:55 AM 41.0°F 39.2°F 93% 30.32 in 7.0 miles NNE 5.8 mph - N/A   Overcast
8:15 AM 41.0°F 39.2°F 93% 30.32 in 10.0 miles NNE 5.8 mph - N/A   Overcast
8:35 AM 41.0°F 39.2°F 93% 30.33 in 7.0 miles North 3.5 mph - N/A   Overcast
8:55 AM 41.0°F 39.2°F 93% 30.33 in 7.0 miles NNE 5.8 mph - N/A   Overcast
9:15 AM 41.0°F 41.0°F 100% 30.33 in 4.0 miles North 3.5 mph - N/A   Overcast
9:55 AM 41.0°F 39.2°F 93% 30.34 in 10.0 miles North 6.9 mph - N/A   Mostly Cloudy
10:15 AM 41.0°F 39.2°F 93% 30.34 in 10.0 miles NNW 8.1 mph - N/A   Mostly Cloudy
10:35 AM 42.8°F 39.2°F 87% 30.34 in 10.0 miles North 6.9 mph - N/A   Mostly Cloudy
10:55 AM 42.8°F 39.2°F 87% 30.33 in 10.0 miles North 5.8 mph - N/A   Mostly Cloudy
11:15 AM 44.6°F 39.2°F 81% 30.33 in 10.0 miles North 10.4 mph - N/A   Mostly Cloudy
11:35 AM 44.6°F 39.2°F 81% 30.33 in 10.0 miles NNE 13.8 mph 18.4 mph N/A   Mostly Cloudy
11:55 AM 44.6°F 39.2°F 81% 30.32 in 10.0 miles NNE 13.8 mph - N/A   Partly Cloudy
12:15 PM 44.6°F 39.2°F 81% 30.32 in 8.0 miles North 12.7 mph - N/A   Mostly Cloudy
12:35 PM 44.6°F 39.2°F 81% 30.32 in 10.0 miles NNE 11.5 mph - N/A   Overcast
12:55 PM 44.6°F 39.2°F 81% 30.31 in 10.0 miles NNE 11.5 mph 17.3 mph N/A   Overcast
1:15 PM 44.6°F 37.4°F 76% 30.30 in 10.0 miles NNE 12.7 mph 17.3 mph N/A   Overcast
1:35 PM 44.6°F 37.4°F 76% 30.29 in 10.0 miles North 11.5 mph - N/A   Overcast
1:55 PM 44.6°F 37.4°F 76% 30.30 in 5.0 miles NNE 13.8 mph 18.4 mph N/A   Haze
2:15 PM 44.6°F 37.4°F 76% 30.29 in 7.0 miles NNE 12.7 mph 16.1 mph N/A   Mostly Cloudy
2:35 PM 44.6°F 37.4°F 76% 30.29 in 10.0 miles NNE 11.5 mph - N/A   Mostly Cloudy
2:55 PM 44.6°F 37.4°F 76% 30.29 in 10.0 miles NE 11.5 mph - N/A   Overcast
3:15 PM 44.6°F 37.4°F 76% 30.29 in 10.0 miles NE 11.5 mph 16.1 mph N/A   Mostly Cloudy
3:35 PM 44.6°F 37.4°F 76% 30.28 in 9.0 miles NE 12.7 mph - N/A   Partly Cloudy
3:55 PM 42.8°F 37.4°F 81% 30.29 in 8.0 miles NNE 10.4 mph - N/A   Clear
4:15 PM 41.0°F 37.4°F 87% 30.28 in 10.0 miles NNE 8.1 mph - N/A   Clear
4:35 PM 41.0°F 37.4°F 87% 30.28 in 10.0 miles North 8.1 mph - N/A   Clear
4:55 PM 41.0°F 37.4°F 87% 30.28 in 10.0 miles North 5.8 mph - N/A   Scattered Clouds
5:15 PM 39.2°F 37.4°F 93% 30.27 in 6.0 miles North 4.6 mph - N/A   Mostly Cloudy
5:35 PM 39.2°F 37.4°F 93% 30.27 in 10.0 miles North 4.6 mph - N/A   Mostly Cloudy
6:15 PM 39.2°F 37.4°F 93% 30.26 in 10.0 miles North 5.8 mph - N/A   Partly Cloudy
6:35 PM 39.2°F 37.4°F 93% 30.25 in 9.0 miles North 5.8 mph - N/A   Clear
6:55 PM 39.2°F 37.4°F 93% 30.25 in 8.0 miles North 5.8 mph - N/A   Clear
7:15 PM 39.2°F 37.4°F 93% 30.25 in 10.0 miles North 4.6 mph - N/A   Clear
7:35 PM 39.2°F 37.4°F 93% 30.24 in 10.0 miles North 5.8 mph - N/A   Clear
7:55 PM 39.2°F 37.4°F 93% 30.24 in 10.0 miles North 6.9 mph - N/A   Clear
8:15 PM 39.2°F 37.4°F 93% 30.23 in 10.0 miles North 8.1 mph - N/A   Clear
8:35 PM 39.2°F 37.4°F 93% 30.23 in 10.0 miles NNE 10.4 mph - N/A   Clear
8:55 PM 39.2°F 37.4°F 93% 30.23 in 9.0 miles North 6.9 mph - N/A   Clear
9:15 PM 39.2°F 35.6°F 87% 30.22 in 8.0 miles North 5.8 mph - N/A   Partly Cloudy
9:35 PM 39.2°F 37.4°F 93% 30.21 in 7.0 miles North 5.8 mph - N/A   Mostly Cloudy
9:55 PM 39.2°F 35.6°F 87% 30.21 in 10.0 miles North 8.1 mph - N/A   Mostly Cloudy
10:15 PM 37.4°F 35.6°F 93% 30.21 in 10.0 miles North 8.1 mph - N/A   Partly Cloudy
10:35 PM 37.4°F 35.6°F 93% 30.20 in 10.0 miles North 6.9 mph - N/A   Clear
10:55 PM 37.4°F 35.6°F 93% 30.20 in 10.0 miles North 4.6 mph - N/A   Clear
11:15 PM 37.4°F 35.6°F 93% 30.20 in 8.0 miles North 3.5 mph - N/A   Clear
11:35 PM 37.4°F 35.6°F 93% 30.20 in 8.0 miles North 5.8 mph - N/A   Clear
11:55 PM 37.4°F 35.6°F 93% 30.21 in 9.0 miles North 5.8 mph - N/A   Scattered Clouds
Moon Phase
Nov. 25 Nov. 28 Dec. 06 Dec. 13 Dec. 20
Sunrise:07:28 AM (PST) Moon Rise:02:54 PM (PST)11/25
Sunset:04:28 PM (PST) Moon Set:04:41 AM (PST)11/25

Copyright © 2014 The Weather Underground, Inc.